Location: Vesunti
(61.5000°N, 22.8333°E)
Time: 17:03:34
(UTC+00:00)

Cosmos 2322 Rocket - Pass Details

Date: 17 February 2020
Orbit: 833 x 851 km, 71.0° (Epoch: 07 April)

Event Time Altitude Azimuth Distance (km) Brightness Sun altitude
Exits shadow 00:33:24 33° 50° (NE) 1,392 3.7 -36.8°
Drops below altitude 10° 00:36:30 10° 43° (NE) 2,492 5.4 -36.6°
Sets 00:38:58 0° 42° (NE) 3,431 6.3 -36.4°
